Location: Bukovany
(49.8234°N, 14.6297°E)
Time: 19:15:56
(UTC+00:00)

Cosmos 540 Rocket - Visible Passes

Search period start: 06 February 2026 00:00
Search period end: 16 February 2026 00:00
Orbit: 736 x 746 km, 74.1° (Epoch: 6 February)

Date Brightness Start Highest point End Pass type
(mag) Time Alt. Az. Time Alt. Az. Time Alt. Az.
6 Feb 4.9 16:49:56 10° WSW 16:54:36 36° NW 16:59:18 10° N visible
7 Feb 6.0 17:49:13 10° WNW 17:51:51 14° NW 17:54:29 10° N visible
8 Feb 5.6 17:02:15 10° W 17:06:11 22° NW 17:10:08 10° N visible
10 Feb 6.0 17:15:19 10° WNW 17:17:57 14° NW 17:20:35 10° N visible
